Regional Weather Roundup
Issued by NWS

Home | Current Version | Previous Version | Text Only | Print | Product List | Glossary Off
Versions: 1 2 3 4 5 6 7 8 9 10 11 12 13 14 15 16 17 18 19 20 21 22 23 24 25 26 27 28 29 30 31 32 33 34 35 36 37 38 39 40 41 42 43 44 45 46 47 48 49 50

000
ASUS43 KOAX 032302
RWRNE

WEATHER ROUNDUP FOR NEBRASKA
NATIONAL WEATHER SERVICE OMAHA NE
600 PM CDT SUN MAY 03 2015

NOTES: SATELLITE DATA IS BEING USED TO AUGMENT CLOUD COVER ABOVE
       12000 FEET.
       "FAIR" INDICATES FEW OR NO CLOUDS BELOW 12,000 FEET WITH NO
       SIGNIFICANT WEATHER AND/OR OBSTRUCTIONS TO VISIBILITY.

  * THESE STATIONS DO NOT REPORT WEATHER SUCH AS RAIN...SNOW OR FOG.

NEZ001>004-019>022-054>056-040000-
NEBRASKA PANHANDLE

CITY           SKY/WX    TMP DP  RH WIND       PRES   REMARKS
SCOTTSBLUFF    CLOUDY    68  38  33 NE10      29.98R
ALLIANCE       SUNNY     68  40  35 NE16      29.96R
CHADRON        SUNNY     70  40  33 NE16G23   29.96S
KIMBALL        CLOUDY    64  39  40 NE7       30.00R
SIDNEY         PTSUNNY   69  41  36 NE15      29.96R
$$

NEZ057>060-069>072-079>082-040000-
SOUTHWEST NEBRASKA

CITY           SKY/WX    TMP DP  RH WIND       PRES   REMARKS
NORTH PLATTE   SUNNY     77  46  33 N16G28    29.85R
IMPERIAL       SUNNY     78  40  25 NE17      29.85S
LEXINGTON      SUNNY     82  50  32 N17       29.79R
MCCOOK         PTSUNNY   87  44  22 N21       29.78R
OGALLALA       SUNNY     76  41  28 NE14G21   29.89R
$$

NEZ005>010-023>029-035>040-094-040000-
NORTH CENTRAL NEBRASKA

CITY           SKY/WX    TMP DP  RH WIND       PRES   REMARKS
VALENTINE      MOSUNNY   72  38  29 NE23G32   29.93S
AINSWORTH      MOSUNNY   71  38  30 N21G30    29.92R
BROKEN BOW     SUNNY     81  49  32 N17G23    29.82R
O`NEILL        MOSUNNY   75  47  36 NE22G29   29.85R
ORD            SUNNY     80  51  36 N17       29.78R
THEDFORD       SUNNY     73  43  33 NE21G26   29.91R
$$

NEZ041-046>049-061>064-073>077-083>087-040000-
SOUTH CENTRAL NEBRASKA

CITY           SKY/WX    TMP DP  RH WIND       PRES   REMARKS
GRAND ISLAND   SUNNY     83  47  28 N10       29.73R
AURORA         MOSUNNY   89  38  16 NW7       29.71S
HASTINGS       MOSUNNY   89  38  16 SW12G20   29.72S
HEBRON         MOSUNNY   89  43  20 S18       29.72S
HOLDREGE       MOSUNNY   86  38  18 W7G13     29.76R
KEARNEY *      MOSUNNY   88  41  19 NW7       29.74S
$$

NEZ011>018-030>034-042>045-040000-
NORTHEAST NEBRASKA

CITY           SKY/WX    TMP DP  RH WIND       PRES   REMARKS
NORFOLK        MOSUNNY   87  54  32 N10       29.72S
ALBION         SUNNY     83  53  35 N20       29.74R
BLAIR          PTSUNNY   79  58  49 CALM      29.73S
COLUMBUS *     PTSUNNY   82  57  42 SE12      29.73F
FREMONT        PTSUNNY   79  57  46 CALM      29.73S
TEKAMAH        MOSUNNY   86  54  33 S12       29.71S
WAYNE          PTSUNNY   87  52  30 N12       29.73F
$$

NEZ050>053-065>068-078-088>093-040000-
SOUTHEAST NEBRASKA

CITY           SKY/WX    TMP DP  RH WIND       PRES   REMARKS
LINCOLN        PTSUNNY   74  59  59 SE14G29   29.74R THUNDER
OMAHA EPPLEY   PTSUNNY   79  60  52 SE12      29.72S
BEATRICE       MOSUNNY   86  57  37 S16       29.72S
FALLS CITY     MOSUNNY   84  58  40 S10       29.76F
NEBRASKA CITY  PTSUNNY   80  52  37 S14       29.77R
PLATTSMOUTH    CLOUDY    75  57  53 SE7       29.75R
$$

NEZ044-045-051>053-067-040000-
OMAHA AREA

CITY           SKY/WX    TMP DP  RH WIND       PRES   REMARKS
OMAHA EPPLEY   PTSUNNY   79  60  52 SE12      29.72S
BLAIR          PTSUNNY   79  58  49 CALM      29.73S
FREMONT        PTSUNNY   79  57  46 CALM      29.73S
MILLARD        PTSUNNY   77  61  56 CALM      29.73R
PLATTSMOUTH    CLOUDY    75  57  53 SE7       29.75R
WAHOO          FAIR      74  61  62 E8        29.72S
$$



USA.gov is the U.S. government's official web portal to all federal, state and local government web resources and services.